Погода в Бадамше

Казахстан     50°33′44″N   58°16′44″E
темп.,
°C
ветер,
м/с
пор.,
м/с
влажн.,
%
обл.,
%
осадки,
мм/ч
давл.,
гПа
погр.,
м
2 марта, вт
вт223:00−15з7119598 0.3 1021319
02:00−17з71298100 0.1 1021262
05:00−19з81299100 0.1 1021248
08:00−21з712100100 0.0 1022217
11:00−20з813100100 0.1 1022282
14:00−17з9139698 0.0 1021321
17:00−15зюз9159386 0.0 1020363
20:00−14зюз9169493 0.0 1019370
3 марта, ср
ср323:00−11юз10189497 0.1 1017474
02:00−8юз101892100 0.1 1014559
05:00−7юз111992100 0.1 1012572
08:00−5юз111794100 0.4 1010765
11:00−3юз111794100 1.1 1010853
14:00−2юз111695100 1.0 1008962
17:00−1юз111595100 2.0 10071026
20:00−2юз91596100 1.1 1006839
4 марта, чт
чт423:00−2зюз81495100 2.1 1006684
02:00−3юз8149598 0.4 1005558
05:00−3зюз8129598 0.9 1006517
08:00−6з8129487 0.4 1007370
11:00−8з9139292 0.5 1011581
14:00−8з9129199 0.1 1013639
17:00−9з9139299 0.2 1015615
20:00−12зюз7139799 0.1 1017311
5 марта, пт
пт523:00−10зюз10189397 0.1 1018466
02:00−7зюз12199299 0.2 1017760
05:00−7юз12218998 0.3 1017575
08:00−7юз12228950 0.0 1017555
11:00−5юз13218751 0.0 1017727
14:00−3юз14218424 0.0 1017931
17:00−3юз13208656 0.0 1017939
20:00−3зюз12199199 0.1 1016802
6 марта, сб
сб623:00−4зюз11189399 0.4 1017671
02:00−4зюз10169496 0.1 1017508
05:00−3зюз8139498 0.4 1017467
08:00−2зюз6119698 0.1 1018476
11:00−1юз7109699 0.3 1017467
14:000юз91398100 0.3 1016603
17:000юз101790100 0.8 1015738
20:00−2юз9179459 0.0 1014498